RH
84 71 61 56 44 31 27 19 16 16 13 10 7 5 3 4 2 2 2 2 2 2 2 2 3 3 3 4 5 14 15 16 18 21 22 23 25 28 39 53 62 56 47 45 51 72 65
77 80 52 62 55 32 29 28 18 19 16 13 11 7 4 5 5 4 4 2 2 2 2 3 3 4 4 4 7 15 16 16 17 18 19 20 21 23 29 39 56 59 55 45 43 48 71
43 65 54 43 69 37 37 32 23 20 20 17 15 10 8 4 8 6 6 4 2 2 2 3 4 3 4 3 6 15 18 17 17 17 18 18 19 19 20 25 38 55 57 53 47 48 56
25 38 59 35 69 42 41 34 33 20 20 20 17 16 9 6 5 11 10 10 6 3 3 3 3 3 4 6 8 16 16 17 17 19 18 16 18 17 19 19 24 38 46 49 50 46 46
24 25 39 33 56 52 41 38 33 31 26 17 21 18 14 9 6 8 11 14 13 10 6 5 6 6 7 9 12 22 21 20 20 21 21 18 18 18 19 18 18 19 24 33 43 45 44
24 24 32 52 34 59 44 43 40 37 28 20 18 20 18 15 9 7 11 12 18 20 14 14 11 10 13 15 21 23 25 26 24 22 23 23 22 20 19 16 16 19 20 22 27 32 36
24 23 26 100 26 56 47 52 44 40 37 25 20 20 21 19 14 10 8 12 21 30 32 24 17 15 14 19 30 24 27 26 26 26 24 26 26 21 21 17 15 17 19 18 18 18 20
30 25 24 40 49 50 64 48 54 47 42 35 23 19 20 21 19 14 10 9 11 15 32 30 26 18 17 14 14 21 23 27 27 24 21 22 21 18 16 16 15 15 17 19 18 17 16
27 24 22 23 44 62 54 56 56 54 41 40 31 20 20 20 23 21 16 9 8 11 14 17 23 29 17 17 17 21 22 23 23 21 19 18 17 16 16 15 15 14 16 18 18 17 18
24 27 20 21 24 69 42 58 55 60 54 41 39 32 22 20 20 20 20 17 9 8 10 11 9 20 39 20 19 22 22 24 24 22 20 18 17 17 17 17 16 16 18 18 20 21 23
22 24 20 18 19 31 43 68 54 58 64 45 43 36 30 23 19 19 20 20 18 10 8 11 9 8 10 16 18 21 24 23 25 27 28 28 26 25 23 22 21 20 20 20 23 23 30
18 21 19 18 17 19 43 61 58 61 65 62 52 38 36 30 25 20 22 19 22 20 12 8 14 10 9 8 16 25 25 26 29 31 33 34 33 30 29 30 31 30 29 30 36 40 62
18 21 17 16 16 16 31 72 58 55 68 74 59 51 34 32 33 22 20 19 20 22 20 16 9 13 16 15 18 24 32 34 32 29 27 26 23 22 23 26 29 31 34 42 50 62 82
17 18 17 15 14 15 19 99 62 60 56 82 77 58 45 30 30 29 18 17 20 18 20 22 21 15 10 18 28 31 30 28 27 26 25 27 26 27 29 28 31 34 38 40 46 60 77
15 15 15 14 13 14 15 65 74 70 63 64 82 73 58 44 37 28 27 19 19 18 18 19 22 21 21 20 14 19 26 30 31 32 33 35 36 38 38 38 36 35 40 44 46 49 55
14 13 13 12 12 12 14 79 96 76 66 60 82 80 77 65 49 40 30 26 24 27 21 18 20 21 24 22 23 24 19 15 14 19 26 33 36 38 39 42 42 42 42 41 40 42 47
13 13 12 13 12 11 12 19 100 72 79 65 75 78 87 74 66 55 42 34 30 31 32 27 24 21 21 22 25 22 21 22 24 23 20 18 16 16 23 30 34 37 38 39 39 41 42
18 17 14 13 13 12 12 16 72 100 83 58 81 65 70 79 75 64 53 38 38 31 36 41 40 29 24 22 20 21 25 28 24 22 23 24 26 28 28 26 23 18 16 18 24 29 32
54 47 37 39 33 19 16 18 39 96 95 80 74 89 70 71 81 74 65 52 40 39 31 42 45 53 39 29 29 28 23 26 24 29 28 25 24 23 22 22 23 26 28 28 27 25 23
82 90 75 60 65 47 36 26 34 69 100 100 74 81 92 74 70 73 72 68 56 46 58 48 43 47 65 46 40 40 34 41 40 34 32 35 33 32 28 31 31 31 30 27 26 26 25
92 88 88 85 88 94 74 77 75 72 81 98 100 89 98 74 67 60 71 65 62 61 48 60 51 69 65 71 51 41 45 48 55 46 51 45 36 38 36 40 31 28 29 34 37 36 33
100 99 100 100 89 86 100 96 96 94 99 100 100 100 84 100 100 80 75 72 63 68 74 75 79 65 61 76 80 58 52 61 47 55 63 57 62 64 52 44 40 36 34 27 25 30 38
100 100 100 100 100 98 98 100 100 100 100 100 100 100 100 97 95 99 98 95 81 76 77 75 95 70 70 75 76 76 64 70 81 66 61 70 70 58 54 64 74 58 55 48 44 43 36
91 96 100 100 100 100 100 100 100 100 100 100 100 100 97 99 85 98 100 100 99 89 81 93 90 98 69 73 79 75 78 82 100 77 80 80 88 86 79 61 59 61 57 54 56 57 56
87 73 75 100 100 99 98 100 100 100 100 100 100 100 100 92 98 99 100 100 100 100 94 90 97 99 86 78 87 84 72 93 100 80 100 100 93 98 82 89 87 75 61 96 71 51 56
74 73 73 98 100 100 98 79 88 100 100 100 100 100 100 100 100 100 100 100 90 95 100 100 78 89 100 100 100 100 77 97 98 85 84 81 88 93 82 80 88 85 85 91 97 86 82
100 99 58 51 100 100 100 96 83 93 86 100 100 100 100 100 100 96 99 100 100 100 100 100 100 99 100 97 100 100 100 100 100 90 80 88 94 99 89 90 99 100 100 97 96 100 98
100 100 99 86 83 89 100 100 100 96 96 96 94 91 100 91 100 100 100 100 100 100 100 100 100 95 100 100 100 100 100 100 100 100 100 100 100 100 100 100 100 100 90 92 100 100 98
70 92 99 83 89 100 100 94 100 100 96 100 93 86 93 95 88 95 100 100 100 100 100 100 100 100 100 100 100 100 100 100 100 100 100 100 100 100 100 100 100 74 90 77 74 79 85
Wind_Speed
52 57 66 73 81 88 95 104 108 113 118 114 95 76 59 51 43 44 33 18 17 25 42 54 65 74 77 81 85 108 114 113 108 105 103 97 95 94 92 90 88 83 80 79 77 73 70
56 55 66 71 78 85 92 102 108 115 117 121 110 88 73 58 56 55 44 19 22 23 34 47 59 68 70 70 76 95 106 111 109 104 103 100 97 93 92 91 90 86 81 77 76 75 72
54 63 65 70 74 81 89 98 105 111 115 121 119 100 80 66 57 55 54 36 22 23 32 43 50 59 60 59 63 86 103 106 108 106 105 102 97 94 92 89 87 85 84 80 77 75 75
52 59 65 69 71 79 85 94 100 105 113 111 115 112 90 72 63 55 54 53 35 19 18 21 30 33 37 41 53 79 93 102 103 103 101 100 98 93 91 91 87 84 82 79 77 76 76
51 56 62 67 69 75 80 88 95 101 105 106 113 116 103 83 67 54 47 49 45 34 18 17 28 28 30 35 52 71 83 90 94 98 97 96 96 93 91 90 86 83 82 81 79 79 77
50 53 60 62 68 69 76 82 88 96 101 104 106 110 115 97 76 57 46 40 46 33 24 13 16 27 35 43 56 67 75 85 85 95 91 92 92 93 91 93 84 83 83 82 80 79 78
50 52 56 55 66 64 71 76 82 88 94 100 104 102 110 112 89 69 51 41 37 41 33 15 5 19 34 50 57 65 69 73 75 85 87 88 94 95 92 90 84 83 83 82 81 80 78
48 50 52 54 60 62 64 70 75 81 86 91 97 98 103 106 103 84 66 44 30 29 33 29 20 13 29 41 55 60 64 67 69 73 82 87 92 92 91 89 85 83 83 83 81 80 80
46 49 49 52 52 56 60 63 68 74 79 84 88 94 95 97 100 102 83 65 43 25 24 27 33 25 26 36 45 54 58 60 62 67 71 79 83 88 88 87 84 82 83 82 82 81 80
45 48 48 49 50 50 56 57 61 67 72 77 80 84 88 90 94 95 97 81 62 41 21 18 20 34 29 35 43 43 46 43 42 45 53 61 67 70 78 81 80 80 82 83 82 81 80
40 43 47 46 47 47 52 51 56 60 65 69 75 77 80 85 88 89 92 97 82 61 37 21 12 17 37 34 36 37 34 34 34 33 36 38 43 47 51 56 65 73 76 78 78 77 76
39 41 42 44 46 46 45 46 48 53 57 63 67 71 75 78 83 85 86 87 93 88 61 42 27 16 26 22 30 31 30 28 30 32 35 36 38 40 42 45 51 56 64 68 70 70 71
38 38 41 40 44 42 40 38 41 46 50 55 60 63 67 72 77 81 78 79 81 91 85 66 44 28 18 22 24 29 25 20 23 24 24 25 29 32 33 36 39 44 51 58 62 65 65
38 38 38 39 38 40 38 28 36 39 44 48 53 57 59 64 69 73 76 73 75 72 84 84 74 54 35 21 14 19 17 18 17 16 13 12 10 11 12 15 21 29 36 43 49 55 60
40 38 39 39 38 37 36 28 29 33 37 41 46 50 53 56 61 65 67 72 71 75 72 74 82 75 65 49 30 17 7 8 9 10 11 11 11 11 11 12 14 18 23 29 34 40 47
43 42 41 40 38 36 33 22 22 27 33 35 38 42 45 48 53 58 60 64 66 68 70 69 69 74 73 68 58 48 35 22 12 7 8 10 11 13 15 17 19 21 22 25 26 29 34
41 41 42 40 38 32 30 24 20 25 28 30 32 36 39 42 46 51 55 55 58 60 63 65 68 66 64 66 63 60 58 49 42 33 24 15 6 6 12 17 20 22 25 27 28 31 33
30 28 27 29 29 29 28 23 16 22 27 26 28 31 33 36 39 44 47 48 51 54 54 56 57 62 62 62 59 60 59 60 56 51 44 37 32 28 21 13 4 6 15 24 30 35 38
27 26 25 27 28 26 24 22 20 20 24 25 25 27 30 32 34 35 39 41 44 45 48 47 50 50 52 56 57 55 52 53 54 56 53 49 44 39 34 29 25 22 18 14 9 5 3
31 30 28 26 26 27 23 24 22 23 22 22 25 24 27 28 29 31 31 32 37 39 38 41 42 45 43 46 48 47 47 46 48 51 51 48 51 47 42 38 36 35 33 28 24 21 16
36 34 33 34 30 28 29 24 26 23 24 24 27 26 26 27 27 27 28 31 31 31 35 34 35 35 36 35 39 42 40 36 37 42 41 44 47 45 46 43 37 33 34 34 34 32 29
42 41 39 35 38 36 34 34 34 31 26 26 28 29 29 28 26 27 24 28 28 26 26 25 26 27 29 29 30 32 33 31 34 32 31 35 35 34 38 39 40 39 34 28 29 28 26
51 50 45 42 41 42 41 39 36 35 31 32 34 36 33 34 30 28 29 31 26 24 22 23 20 28 25 25 26 25 26 25 23 26 27 27 28 30 30 29 28 30 31 30 31 35 31
53 54 57 56 48 46 44 42 40 40 40 37 38 39 41 39 39 34 31 33 30 27 22 17 17 24 26 25 25 25 18 19 16 22 20 22 22 23 23 28 26 24 28 28 30 31 33
65 61 60 60 59 58 54 51 45 46 46 46 47 44 46 46 42 38 38 38 40 35 31 26 26 28 29 34 31 29 24 16 14 20 19 21 20 19 23 24 23 24 29 23 27 32 33
72 68 62 63 62 59 64 65 64 54 48 48 50 52 48 47 45 46 48 45 48 42 41 40 37 36 36 34 32 35 32 25 27 28 21 24 23 26 29 29 32 31 28 31 32 35 33
75 77 72 67 68 65 61 69 72 73 70 64 60 52 53 56 56 54 53 53 52 49 44 50 54 40 44 45 42 38 38 40 38 36 37 36 32 34 32 30 36 42 36 36 35 37 41
82 82 77 72 73 74 71 67 73 75 75 77 74 72 69 65 60 62 62 57 58 58 56 55 51 48 47 51 51 50 48 49 48 43 45 40 42 40 43 41 41 46 51 52 48 45 50
91 86 85 80 80 79 77 72 75 80 80 79 81 80 77 76 74 71 69 65 65 63 62 56 56 55 56 56 57 53 53 54 53 53 48 46 52 56 56 53 56 63 60 59 59 58 62
Wind_Direction
1 0 3 1 5 10 13 15 18 20 16 21 24 24 31 39 45 48 45 81 121 165 181 191 197 202 207 209 206 203 203 205 206 209 211 213 215 220 223 225 229 230 231 233 234 235 236
4 360 3 2 6 11 13 15 18 23 21 21 23 26 30 39 52 51 45 63 110 153 180 186 195 200 205 205 198 199 202 204 207 209 212 215 219 220 222 227 228 228 232 234 235 237 238
7 0 1 2 3 11 12 16 19 21 24 23 24 27 28 32 45 57 54 49 87 137 172 184 195 200 205 204 193 200 201 205 207 209 213 215 218 221 226 228 231 232 232 234 235 236 238
0 3 360 6 3 10 14 18 19 21 24 26 26 28 31 32 42 49 61 58 57 113 155 172 191 199 194 199 188 197 202 204 208 210 213 217 219 222 224 229 230 233 235 236 238 240 240
357 3 359 3 5 8 15 18 20 20 23 27 30 27 32 34 40 48 58 69 65 68 105 133 154 167 178 180 183 193 199 203 208 210 212 216 218 221 224 228 231 233 236 236 237 239 241
356 360 3 358 4 6 12 17 20 21 22 26 30 31 31 35 36 45 58 66 77 79 81 95 145 163 169 171 184 189 196 201 206 209 212 214 216 219 223 228 229 231 234 236 239 242 245
352 357 4 357 2 5 9 16 19 21 22 26 28 34 34 34 38 41 49 64 72 87 94 110 128 179 182 179 184 189 192 199 207 209 212 216 218 220 222 228 228 230 234 237 239 243 244
345 351 356 358 357 3 4 12 18 22 23 24 26 32 33 34 35 41 46 52 64 87 94 101 118 134 186 192 185 189 194 197 202 207 213 218 220 224 227 229 230 231 234 237 240 242 245
340 343 352 359 357 359 3 6 15 21 23 25 26 29 32 35 37 38 41 45 54 80 98 115 128 142 174 187 192 188 195 199 205 209 214 218 222 225 229 232 233 234 234 237 241 244 246
336 337 346 354 358 355 1 3 10 19 22 24 26 26 28 36 38 40 42 43 45 52 73 102 135 145 166 188 187 198 197 203 208 213 219 221 225 229 234 237 236 236 237 237 240 243 246
329 333 340 346 356 353 357 359 6 16 20 24 25 27 28 30 34 43 44 44 46 48 49 58 81 145 148 158 178 184 186 189 195 201 208 214 222 228 233 235 236 238 239 240 241 243 245
322 326 335 340 346 353 351 354 3 11 20 23 27 26 27 30 32 37 43 46 46 47 51 55 65 97 117 117 156 168 168 176 185 193 204 212 219 225 227 230 232 234 235 237 238 240 243
316 320 327 333 339 345 350 349 358 6 17 21 24 29 28 29 30 32 41 49 46 47 51 55 58 70 87 88 128 146 150 165 181 193 204 214 219 219 220 224 229 233 236 237 238 240 243
309 314 319 326 333 339 347 341 351 4 11 18 21 26 27 28 29 29 30 39 46 51 53 53 58 61 73 85 96 143 150 160 171 180 177 181 190 200 207 222 234 236 238 241 242 243 245
302 306 311 318 323 331 338 334 339 355 4 15 18 20 25 24 27 27 27 29 34 42 51 52 54 55 61 69 76 85 98 138 152 165 182 193 207 214 222 227 230 234 233 238 241 246 249
299 303 307 311 316 321 330 330 330 344 355 5 14 16 20 23 20 23 25 25 30 32 41 46 45 56 57 59 63 69 79 92 118 170 206 220 223 224 223 224 226 228 229 230 228 230 233
296 301 304 310 311 317 324 330 319 333 346 354 1 13 15 16 18 18 19 22 27 29 31 38 36 42 47 53 60 61 62 65 68 72 78 80 78 241 253 253 252 251 247 243 240 239 241
304 312 316 317 319 318 320 323 309 317 329 347 349 2 8 10 11 13 16 20 21 23 28 31 36 35 37 42 44 58 61 60 60 62 64 66 67 70 70 66 39 276 265 262 262 262 262
304 310 319 325 330 331 326 320 312 302 318 333 340 341 354 1 5 8 11 13 19 20 21 26 26 30 33 32 34 34 41 46 52 53 59 59 60 62 66 67 68 68 67 66 57 35 324
294 300 304 309 317 320 326 324 312 319 303 315 320 330 332 343 354 0 2 6 8 11 17 18 20 21 25 29 30 32 34 36 37 40 41 43 49 54 56 55 55 56 55 57 61 61 59
288 291 296 302 307 311 312 314 314 302 309 300 300 312 312 329 337 343 350 351 356 2 3 9 11 15 16 20 24 22 27 33 34 32 35 33 34 34 34 44 50 58 57 56 52 47 44
286 289 294 295 298 301 306 309 311 311 301 294 293 300 311 313 311 324 329 335 340 345 351 357 355 2 7 6 8 16 15 22 22 25 26 27 30 29 26 23 26 32 41 43 38 37 40
287 288 288 292 292 295 297 299 298 299 300 299 295 297 307 300 306 311 307 316 321 326 327 334 334 340 342 351 352 357 4 5 8 12 13 13 13 14 15 17 15 17 17 16 14 16 14
285 289 292 289 285 289 291 290 290 291 294 291 295 291 297 299 301 300 297 304 307 307 309 292 306 314 326 325 326 338 340 348 337 347 348 354 353 351 358 357 354 356 356 356 359 359 353
277 285 287 286 290 288 283 287 286 285 288 289 290 288 287 294 295 298 301 294 303 293 297 290 288 293 311 317 303 312 326 296 298 318 320 321 328 327 329 327 324 325 334 331 339 342 340
274 276 280 284 282 287 290 288 287 284 281 286 290 291 292 289 289 284 293 290 298 296 285 289 295 279 285 293 291 289 311 304 292 309 295 303 296 299 313 312 305 306 315 313 315 323 321
271 272 274 277 277 278 283 286 286 286 287 283 285 287 287 286 284 283 286 287 292 294 284 285 290 278 276 284 295 282 288 298 299 291 298 294 295 293 301 306 298 302 298 301 302 307 313
265 267 270 273 270 271 274 277 281 284 285 284 284 283 287 286 284 283 285 284 287 288 291 289 287 286 281 284 288 291 286 287 290 287 280 282 284 292 296 294 289 290 294 294 296 300 305
264 266 266 268 268 268 268 274 278 276 278 279 281 281 282 282 286 285 288 285 286 289 284 283 284 283 278 278 287 277 286 279 284 286 276 279 282 284 284 282 282 289 288 291 296 299 301